Regional Weather Roundup
Issued by NWS Charleston, SC

Home | Current Version | Previous Version | Text Only | Print | Product List | Glossary On
Versions: 1 2 3 4 5 6 7 8 9 10 11 12 13 14 15 16 17 18 19 20 21 22 23 24 25 26 27 28 29 30 31 32 33 34 35 36 37 38 39 40 41 42 43 44 45 46 47 48 49 50
000
ASUS42 KCHS 280928
RWRCHS

REGIONAL WEATHER ROUNDUP
NATIONAL WEATHER SERVICE CHARLESTON SC
500 AM EDT SAT MAY 28 2016

NOTE: "FAIR" INDICATES FEW OR NO CLOUDS BELOW 12,000 FEET WITH NO
SIGNIFICANT WEATHER AND/OR OBSTRUCTIONS TO VISIBILITY.

NOT ALL STATIONS ARE QUALITY CONTROLLED. USE DATA WITH CAUTION...
ESPECIALLY DEWPOINT OBSERVATIONS.

SCZ027-030-031-034>040-042>050-281000-
...SOUTHEAST SOUTH CAROLINA...

CITY           SKY/WX    TMP DP  RH WIND       PRES   REMARKS
N CHARLESTON   PTCLDY    70  67  90 N6        30.06S
WATERFRONT PRK   N/A     73  70  90 N6        30.03F
MOUNT PLEASANT FAIR      72  70  94 N5        30.07R
JOHNS ISLAND   FAIR      72  70  94 N5        30.06S
PINOPOLIS        N/A     72  68  88 E8        30.01S
MONCKS CORNER  FAIR      66  63  88 E5        30.08S
SUMMERVILLE    PTSUNNY   70  68  94 CALM      30.08S
BEAUFORT MCAS  PTCLDY    70  67  90 N6        30.06S
BEAUFORT ARPT  FAIR      72  68  88 N3        30.05S
HILTON HEAD IS MOCLDY    73  72  94 N5        30.06S
WALTERBORO     CLOUDY    72  70  94 NE6       30.08S
ALLENDALE      FAIR      64  63  94 CALM      30.08R

...SOUTHERN MIDLANDS AND PEE DEE...

CITY           SKY/WX    TMP DP  RH WIND       PRES   REMARKS
GEORGETOWN     NOT AVBL
KINGSTREE      CLOUDY    68  63  83 CALM      30.10R
ORANGEBURG     CLOUDY    69  63  81 NE5       30.09S
BARNWELL       FAIR      64  64 100 CALM      30.10S
AIKEN          FAIR      59  57  94 CALM      30.14S
MANNING        CLOUDY    68  63  83 NE3       30.10R
COLUMBIA       PTCLDY    60  56  86 SW3       30.11R
SUMTER         MOCLDY    63  59  88 NE6       30.09R
FLORENCE       MOCLDY    65  61  87 N5        30.11F
MYRTLE BEACH   PTCLDY    70  61  73 N7        30.11S
N MYRTLE BEACH MOCLDY    67  65  93 NE6       30.09S

$$

GAZ063-065-086>088-099>101-113>116-118-119-134>141-150-281000-
...SOUTHEAST GEORGIA...

CITY           SKY/WX    TMP DP  RH WIND       PRES   REMARKS
SAVANNAH ARPT  MOCLDY    68  65  90 NE6       30.05S
HUNTER AAF     PTCLDY    71  70  99 NE3       30.02S
FORT STEWART   PTCLDY    66  64  93 CALM      30.03R
STATESBORO     CLEAR     64  64 100 CALM      30.07S
SYLVANIA       SUNNY     67  64  92 NE5       30.08S
CLAXTON        FAIR      62  61  99 CALM      30.06S

...CSRA...CENTRAL AND FAR SOUTHEAST GEORGIA...

CITY           SKY/WX    TMP DP  RH WIND       PRES   REMARKS
THOMSON        CLEAR     59  59 100 CALM      30.16R
AUGUSTA-BUSH   CLEAR     58  58 100 CALM      30.09R FOG
AUGUSTA-DANIEL CLEAR     68  61  78 NE3       30.11R
SWAINSBORO     FAIR      61  59  94 CALM      30.09S
VIDALIA        CLEAR     64  63  94 CALM      30.07S
EASTMAN        FAIR      60  60 100 CALM      30.10S FOG
HAZLEHURST     FAIR      66  66 100 CALM      30.06R
ALMA           CLEAR     65  64  97 N3        30.05R FOG
WAYCROSS       PTCLDY    64  64 100 N3        30.05R FOG
JESUP          FAIR      63  63 100 CALM      30.05R
BAXLEY         FAIR      68  66  94 CALM      30.06R
BRUNSWICK      FOG       64  64 100 CALM      30.04R VSB 1/4
SAINT SIMONS   PTCLDY    74  70  87 NE6       30.02S

$$

SCZ027-028-034-036>038-045-046-048>050-GAZ119-141-281000-
...LAKE AND SUPPLEMENTAL COASTAL OBSERVATIONS...

STATION/POSITION TIME  TEMP    WIND        PRES    WAVE   SWELL
                       AIR SEA DIR/SP/G            HT/PER HT/PER/DIR
                 (UTC) (F)     (DEG/KT/KT) (MB)    (FT/S) (FT/S/D)
WINYAH BAY       0845   75      50/  8     1018.0S
LAKE MURRAY      0900   65        CALM     1019.3S
ACE BASIN NERRS  0800   69     360/  1     1018.0S
FORT PULASKI     0900   75 77   50/ 10/ 12 1017.7S
SAPELO ISLAND    0900   71      40/  6     1017.0S

$$

ANZ835-935-AMZ111-154-330-350-352-354-370-450-454-472-281000-
...C-MAN AND BUOY OBSERVATIONS...

STATION/POSITION TIME  TEMP    WIND        PRES    WAVE   SWELL
                       AIR SEA DIR/SP/G            HT/PER HT/PER/DIR
                 (UTC) (F)     (DEG/KT/KT) (MB)    (FT/S) (FT/S/D)
BUOY 41004       0850   76 76   30/ 14/ 16 1016.7F   4/ 7
BUOY 41008       0850   76 76   60/ 14/ 16 1016.1F   3/ 7   2/120/ 7
FOLLY BEACH CMAN 0900   75      40/ 13/ 14 1017.9S
CAPERS NEARSHORE 0908   75 76   50/ 14/ 17 1017.4F
FRIPP NEARSHORE  0908   74 76   80/  6/ 10 1017.1R


STATION/POSITION TIME  TEMP    WIND        PRES    WAVE   SWELL
                       AIR SEA DIR/SP/G            HT/PER HT/PER/DIR
                 (UTC) (F)     (DEG/KT/KT) (MB)    (FT/S) (FT/S/D)
5E ST. MARYS GA  0901      78                N/A     3/ 8
FRYING PAN BUOY  0900   77 76   50/ 12/ 16 1018.3R
BUOY 41025       0850   76 78  120/ 12/ 14 1020.2R   4/ 8   3/120/ 8
CAPE LOOKOUT NC  0900   74     110/  7/  8 1019.7R
BUOY 41002       0850   76 77   90/ 17/ 19 1017.2R   5/ 8   3/120/ 8
BUOY 41010       0820   77 78  340/ 12/ 14 1013.2F
ST AUGUSTINE FL  0900   76 79   50/ 11/ 12 1016.3S


$$




USA.gov is the U.S. government's official web portal to all federal, state and local government web resources and services.